Regional Weather Roundup
Issued by NWS

Home | Current Version | Previous Version | Text Only | Print | Product List | Glossary On
Versions: 1 2 3 4 5 6 7 8 9 10 11 12 13 14 15 16 17 18 19 20 21 22 23 24 25 26 27
000
ASUS45 KSLC 072310
RWRUT

UTAH REGIONAL WEATHER ROUNDUP
NATIONAL WEATHER SERVICE SALT LAKE CITY UT
400 PM MST WED DEC 07 2016

UTZ001>011-023>025-080000-

NORTHERN UTAH

CITY           SKY/WX    TMP DP  RH WIND       PRES   REMARKS
BRIGHAM CITY     N/A     28   7  41 N6        30.30R WCI  21
DUGWAY         PTCLDY    28   4  36 NW7       30.29  WCI  21
HILL AFB       NOT AVBL
LOGAN          CLEAR     23   7  50 N6        30.29R WCI  16
OGDEN          PTCLDY    24  12  60 MISG      30.27S
SALT LAKE CITY PTCLDY    27  11  51 NW6       30.29R WCI  20
TOOELE VALLEY  CLEAR     27  16  63 N3        30.29R
WENDOVER       CLEAR     27   5  39 SE5       30.29S WCI  21
HEBER CITY     CLEAR     25   3  39 CALM      30.18S
WEST JORDAN    CLEAR     25  19  79 NW10G17   30.28R WCI  15

$$

UTZ011>015-024>027-080000-

CENTRAL/NORTHEAST UTAH

CITY           SKY/WX    TMP DP  RH WIND       PRES   REMARKS
PROVO AIRPORT  CLEAR     28  10  46 W5        30.27S WCI  23
MOAB/CANYONLAN CLEAR     34   2  25 NW13      30.18R WCI  25
DELTA          CLEAR     30   3  31 N5        30.24S WCI  25
PRICE          CLEAR     27  -7  22 NW7       30.16R WCI  19
ROOSEVELT      PTCLDY    32  -8  18 S5        30.20R WCI  27
VERNAL         MOCLDY    27   0  31 NE9       30.20R WCI  18

$$

UTZ013>016-019>022-027-080000-

SOUTHERN UTAH

CITY           SKY/WX    TMP DP  RH WIND       PRES   REMARKS
BRYCE CANYON   NOT AVBL
CEDAR CITY     MOSUNNY   32   8  36 N12       30.12S WCI  23
MILFORD        SUNNY     30   9  41 N15       30.19R WCI  19
ST GEORGE      CLEAR     46   7  19 SW6       30.16S
HANKSVILLE     CLEAR     36   3  25 N9        30.20S WCI  29
BLANDING       CLEAR     32  -1  24 N12       30.20R WCI  23

$$

REGIONAL REPORTS     COLORADO/ARIZONA

CITY           SKY/WX    TMP DP  RH WIND       PRES   REMARKS
CRAIG, CO      PTCLDY    16   2  54 CALM      30.21R
GRAND JUNCTION CLEAR     30   6  36 W5        30.19R WCI  25
RIFLE, CO      MOCLDY    24   7  48 NW9       30.19R WCI  14
MONTROSE, CO   CLEAR     27   2  34 NW9       30.17R WCI  18
CORTEZ, CO     CLEAR     33   0  24 N12       30.12R WCI  24
COLORADO CITY    N/A     41   9  26 NW5       30.14R
PAGE, AZ       SUNNY     42   5  21 NE7       30.13R
GRAND CANYON   SUNNY     39  11  31 VRB7      30.08R WCI  34
KINGMAN, AZ    SUNNY     51   6  16 N12       30.09R
FLAGSTAFF, AZ  CLOUDY    39  27  62 VRB3      30.07R

$$

REGIONAL REPORTS    NEVADA/IDAHO/WYOMING

CITY           SKY/WX    TMP DP  RH WIND       PRES   REMARKS
LAS VEGAS, NV  PTSUNNY   52   2  13 NE8       30.13S
ELY, NY        SUNNY     27  -1  30 N3        30.14R
ELKO, NV       SUNNY     26   2  35 SE5       30.20S WCI  20
POCATELLO, ID  MOCLDY    16  11  80 CALM      30.32R
BURLEY, ID     CLEAR     21  13  71 N5        30.30R WCI  15
FORT BRIDGER,    N/A     16   3  56 NW3       30.17S
EVANSTON, WY   CLEAR     15   1  53 W6        30.14R WCI   6
ROCK SPRINGS,  PTCLDY    10   1  67 CALM      30.17R

$$




USA.gov is the U.S. government's official web portal to all federal, state and local government web resources and services.